FW2156 Weather Reports


time (UTC)temp
C
wind
direction
speed
KPH
gust
KPH
rain 1hr
cm
rain 24hr
cm
rain mn
cm
humidity
%
barometer
mb
20260507025827 16 153 4.8 8.0 0.00 0.00 0.00 42 1006.1
20260507025325 17 93 8.0 12.9 0.00 0.00 0.00 42 1006.1
20260507024826 17 66 8.0 11.3 0.00 0.00 0.00 41 1006.1
20260507024327 17 81 3.2 8.0 0.00 0.00 0.00 42 1006.1
20260507023827 17 212 3.2 8.0 0.00 0.00 0.00 41 1005.8
20260507023326 18 127 0.0 1.6 0.00 0.00 0.00 41 1005.8
20260507022826 18 128 4.8 8.0 0.00 0.00 0.00 41 1005.4
20260507022326 18 62 3.2 3.2 0.00 0.00 0.00 41 1005.4
20260507021825 18 67 3.2 4.8 0.00 0.00 0.00 40 1005.4
20260507021326 18 96 4.8 9.7 0.00 0.00 0.00 40 1005.4
20260507020826 18 1 4.8 4.8 0.00 0.00 0.00 40 1005.4
20260507020323 19 72 8.0 14.5 0.00 0.00 0.00 40 1005.1
20260507015824 19 265 1.6 3.2 0.00 0.00 0.00 39 1005.1
20260507015329 19 123 1.6 3.2 0.00 0.00 0.00 39 1005.1
20260507014825 19 112 3.2 4.8 0.00 0.00 0.00 39 1004.7
20260507014324 19 215 0.0 1.6 0.00 0.00 0.00 39 1005.1
20260507013824 18 185 4.8 8.0 0.00 0.00 0.00 39 1005.1
20260507013325 18 310 1.6 1.6 0.00 0.00 0.00 39 1005.1
20260507012823 18 319 4.8 11.3 0.00 0.00 0.00 39 1005.1
20260507012321 18 97 1.6 3.2 0.00 0.00 0.00 39 1005.1
20260507011822 18 88 3.2 4.8 0.00 0.00 0.00 39 1004.7
20260507011324 18 202 1.6 1.6 0.00 0.00 0.00 40 1005.1
20260507010740 18 327 3.2 3.2 0.00 0.00 0.00 40 1004.7
20260507010225 19 189 1.6 3.2 0.00 0.00 0.00 40 1005.1
20260507005724 19 81 4.8 8.0 0.00 0.00 0.00 40 1004.7
20260507005223 20 234 3.2 4.8 0.00 0.00 0.00 40 1004.7
20260507004722 20 57 1.6 3.2 0.00 0.00 0.00 40 1004.7
20260507004220 20 170 3.2 4.8 0.00 0.00 0.00 40 1004.7
20260507003721 20 0 4.8 4.8 0.00 0.00 0.00 38 1004.7
20260507003222 20 166 3.2 4.8 0.00 0.00 0.00 37 1004.7
20260507002722 20 190 1.6 1.6 0.00 0.00 0.00 38 1004.7
20260507002220 20 169 6.4 12.9 0.00 0.00 0.00 37 1004.4
20260507001720 20 227 0.0 1.6 0.00 0.00 0.00 37 1004.4
20260507001222 20 266 1.6 1.6 0.00 0.00 0.00 37 1004.4
20260507000720 20 286 3.2 4.8 0.00 0.00 0.00 37 1004.4
20260507000220 20 301 1.6 3.2 0.00 0.00 0.00 37 1004.4
20260506235719 20 308 1.6 3.2 0.00 0.00 0.00 37 1004.1
20260506235218 21 247 3.2 4.8 0.00 0.00 0.00 37 1004.1
20260506234718 21 188 0.0 0.0 0.00 0.00 0.00 37 1004.1
20260506234218 21 79 1.6 3.2 0.00 0.00 0.00 37 1004.1
20260506233740 21 229 6.4 11.3 0.00 0.00 0.00 37 1004.4
20260506233240 21 264 1.6 3.2 0.00 0.00 0.00 36 1004.4
20260506232740 21 146 1.6 3.2 0.00 0.00 0.00 35 1004.4
20260506232238 21 52 4.8 8.0 0.00 0.00 0.00 35 1004.1
20260506231739 21 132 0.0 1.6 0.00 0.00 0.00 34 1004.4
20260506231240 22 74 3.2 4.8 0.00 0.00 0.00 34 1004.1
20260506230738 22 100 4.8 4.8 0.00 0.00 0.00 34 1004.1
20260506230219 22 110 0.0 1.6 0.00 0.00 0.00 34 1004.4
20260506225717 22 114 6.4 12.9 0.00 0.00 0.00 34 1004.1
20260506225219 22 139 0.0 1.6 0.00 0.00 0.00 33 1004.1
20260506224718 21 152 0.0 1.6 0.00 0.00 0.00 34 1004.4
20260506224219 21 6 1.6 3.2 0.00 0.00 0.00 33 1004.7
20260506223718 21 105 1.6 3.2 0.00 0.00 0.00 34 1004.4
20260506223220 21 177 0.0 1.6 0.00 0.00 0.00 34 1004.4
20260506222716 21 99 0.0 3.2 0.00 0.00 0.00 33 1004.7
20260506222216 22 136 1.6 3.2 0.00 0.00 0.00 34 1004.7
20260506221717 22 128 1.6 3.2 0.00 0.00 0.00 34 1004.4
20260506221141 22 128 4.8 4.8 0.00 0.00 0.00 34 1004.7
20260506220643 22 52 3.2 4.8 0.00 0.00 0.00 34 1004.7
20260506220139 22 89 3.2 4.8 0.00 0.00 0.00 33 1004.7
20260506215637 21 73 3.2 4.8 0.00 0.00 0.00 32 1004.7
20260506215139 21 163 1.6 3.2 0.00 0.00 0.00 32 1004.7
20260506214637 21 87 3.2 3.2 0.00 0.00 0.00 34 1004.7
20260506214142 21 101 3.2 4.8 0.00 0.00 0.00 34 1004.7
20260506213641 21 128 1.6 1.6 0.00 0.00 0.00 34 1004.7
20260506213139 21 53 3.2 3.2 0.00 0.00 0.00 34 1004.7
20260506212643 22 123 1.6 1.6 0.00 0.00 0.00 33 1004.7
20260506212138 22 115 0.0 1.6 0.00 0.00 0.00 34 1004.7
20260506211641 21 165 1.6 3.2 0.00 0.00 0.00 34 1005.1
20260506211139 21 101 1.6 3.2 0.00 0.00 0.00 33 1005.1
20260506210639 21 109 0.0 1.6 0.00 0.00 0.00 34 1005.1
20260506210142 21 153 0.0 1.6 0.00 0.00 0.00 33 1005.1
20260506205641 21 163 1.6 1.6 0.00 0.00 0.00 34 1005.1
20260506205139 21 102 4.8 8.0 0.00 0.00 0.00 34 1005.1
20260506204644 21 201 0.0 0.0 0.00 0.00 0.00 34 1005.1
20260506204138 21 109 4.8 8.0 0.00 0.00 0.00 35 1005.1
20260506203644 21 143 4.8 8.0 0.00 0.00 0.00 34 1005.1
20260506203137 21 194 0.0 1.6 0.00 0.00 0.00 35 1005.4
20260506202637 22 101 4.8 9.7 0.00 0.00 0.00 34 1005.1
20260506202113 22 129 3.2 3.2 0.00 0.00 0.00 34 1005.1
20260506201613 22 122 9.7 12.9 0.00 0.00 0.00 33 1005.1
20260506201114 22 91 0.0 4.8 0.00 0.00 0.00 33 1005.1
20260506200612 22 64 1.6 3.2 0.00 0.00 0.00 33 1005.1
20260506200112 22 230 4.8 4.8 0.00 0.00 0.00 32 1005.4
20260506195614 22 196 0.0 0.0 0.00 0.00 0.00 32 1005.1
20260506195111 21 253 1.6 1.6 0.00 0.00 0.00 32 1005.1
20260506194617 21 297 0.0 0.0 0.00 0.00 0.00 32 1005.4
20260506194113 21 266 3.2 3.2 0.00 0.00 0.00 33 1005.1
20260506193611 21 171 1.6 1.6 0.00 0.00 0.00 33 1005.4
20260506193111 21 280 4.8 9.7 0.00 0.00 0.00 34 1005.4
20260506192611 21 261 0.0 1.6 0.00 0.00 0.00 34 1005.8
20260506192110 21 144 0.0 1.6 0.00 0.00 0.00 35 1005.8
20260506191615 21 107 3.2 4.8 0.00 0.00 0.00 34 1005.8
20260506191116 21 320 3.2 3.2 0.00 0.00 0.00 33 1005.8
20260506190610 20 130 1.6 1.6 0.00 0.00 0.00 34 1006.1
20260506190111 20 238 0.0 1.6 0.00 0.00 0.00 34 1005.8
20260506185538 20 81 4.8 4.8 0.00 0.00 0.00 34 1006.1
20260506185036 20 211 0.0 1.6 0.00 0.00 0.00 35 1006.1
20260506184537 20 208 0.0 1.6 0.00 0.00 0.00 36 1006.1
20260506184038 19 112 1.6 3.2 0.00 0.00 0.00 36 1006.1
20260506183537 19 81 3.2 3.2 0.00 0.00 0.00 35 1006.4
20260506183038 18 103 0.0 1.6 0.00 0.00 0.00 36 1006.4
20260506182536 18 80 1.6 3.2 0.00 0.00 0.00 36 1006.4
20260506182037 18 104 3.2 8.0 0.00 0.00 0.00 36 1006.4
20260506181537 18 93 1.6 3.2 0.00 0.00 0.00 37 1006.4
20260506181037 18 98 4.8 8.0 0.00 0.00 0.00 37 1006.4
20260506180542 18 132 1.6 3.2 0.00 0.00 0.00 37 1006.8
20260506180042 18 139 4.8 4.8 0.00 0.00 0.00 37 1006.8
20260506175544 18 155 0.0 1.6 0.00 0.00 0.00 37 1006.4
20260506175043 17 160 3.2 3.2 0.00 0.00 0.00 38 1006.8
20260506174537 17 111 1.6 3.2 0.00 0.00 0.00 37 1006.8
20260506174038 17 119 0.0 1.6 0.00 0.00 0.00 38 1006.8
20260506173538 17 302 1.6 1.6 0.00 0.00 0.00 38 1007.1
20260506173038 17 295 1.6 3.2 0.00 0.00 0.00 38 1007.1
20260506172525 16 167 0.0 0.0 0.00 0.00 0.00 37 1007.5
20260506172022 16 171 0.0 0.0 0.00 0.00 0.00 38 1007.5
20260506171522 16 95 1.6 1.6 0.00 0.00 0.00 38 1007.5
20260506171021 16 24 0.0 1.6 0.00 0.00 0.00 37 1007.5
20260506170524 15 139 0.0 1.6 0.00 0.00 0.00 39 1007.5
20260506170022 15 163 0.0 1.6 0.00 0.00 0.00 40 1007.5
20260506165521 15 240 1.6 3.2 0.00 0.00 0.00 40 1007.8
20260506165022 15 227 1.6 1.6 0.00 0.00 0.00 40 1007.5
20260506164525 14 108 0.0 1.6 0.00 0.00 0.00 41 1007.8
20260506164022 13 246 0.0 1.6 0.00 0.00 0.00 41 1007.8
20260506163520 12 266 3.2 4.8 0.00 0.00 0.00 41 1007.8
20260506163021 12 207 0.0 0.0 0.00 0.00 0.00 41 1007.8
20260506162521 12 185 0.0 0.0 0.00 0.00 0.00 43 1008.1
20260506162021 11 265 1.6 1.6 0.00 0.00 0.00 45 1007.8
20260506161521 11 278 1.6 1.6 0.00 0.00 0.00 46 1008.1
20260506161020 11 280 3.2 3.2 0.00 0.00 0.00 48 1008.1
20260506160520 10 199 1.6 1.6 0.00 0.00 0.00 47 1008.1
20260506160020 10 248 1.6 3.2 0.00 0.00 0.00 46 1008.1
20260506155521 10 201 0.0 1.6 0.00 0.00 0.00 46 1008.1
20260506155019 9 183 0.0 0.0 0.00 0.00 0.00 46 1008.5
20260506154520 9 247 1.6 1.6 0.00 0.00 0.00 48 1008.1
20260506154022 8 281 3.2 3.2 0.00 0.00 0.00 51 1008.5
20260506153520 8 230 1.6 3.2 0.00 0.00 0.00 51 1008.5
20260506153019 8 261 3.2 3.2 0.00 0.00 0.00 50 1008.5
20260506152519 8 196 0.0 0.0 0.00 0.00 0.00 49 1008.5
20260506152021 7 276 3.2 3.2 0.00 0.00 0.00 51 1008.5
20260506151517 7 173 0.0 0.0 0.00 0.00 0.00 51 1008.8
20260506151019 6 199 0.0 1.6 0.00 0.00 0.00 51 1008.5
20260506150518 6 249 0.0 1.6 0.00 0.00 0.00 52 1008.5
20260506150019 6 333 3.2 4.8 0.00 0.00 0.00 54 1008.8
20260506145518 6 198 0.0 0.0 0.00 0.00 0.00 54 1008.8
20260506145018 5 344 3.2 3.2 0.00 0.00 0.00 55 1008.8
20260506144518 5 223 1.6 3.2 0.00 0.00 0.00 56 1008.8
20260506144017 5 202 1.6 1.6 0.00 0.00 0.00 58 1008.8
20260506143516 5 250 1.6 3.2 0.00 0.00 0.00 57 1008.8
20260506143018 5 239 1.6 3.2 0.00 0.00 0.00 57 1008.8
20260506142516 5 131 0.0 0.0 0.00 0.00 0.00 58 1009.1
20260506142016 4 240 1.6 1.6 0.00 0.00 0.00 58 1009.1
20260506141517 4 264 1.6 1.6 0.00 0.00 0.00 57 1009.1
20260506141016 3 177 0.0 0.0 0.00 0.00 0.00 56 1009.1
20260506140516 3 213 0.0 0.0 0.00 0.00 0.00 60 1009.1
20260506140016 3 198 0.0 0.0 0.00 0.00 0.00 60 1009.5
20260506135516 2 297 1.6 1.6 0.00 0.00 0.00 61 1009.1
20260506135015 2 223 0.0 0.0 0.00 0.00 0.00 62 1009.5
20260506134520 2 280 1.6 1.6 0.00 0.00 0.00 62 1009.5
20260506134015 2 217 0.0 1.6 0.00 0.00 0.00 63 1009.1
20260506133514 2 229 0.0 1.6 0.00 0.00 0.00 64 1009.1
20260506133016 1 242 1.6 1.6 0.00 0.00 0.00 64 1009.1
20260506132514 1 283 1.6 1.6 0.00 0.00 0.00 64 1009.5
20260506132015 1 230 0.0 1.6 0.00 0.00 0.00 64 1009.5
20260506131516 1 231 0.0 1.6 0.00 0.00 0.00 65 1009.5
20260506131017 1 217 0.0 0.0 0.00 0.00 0.00 65 1009.5
20260506130514 1 268 1.6 1.6 0.00 0.00 0.00 65 1009.5
20260506130013 0 239 0.0 1.6 0.00 0.00 0.00 66 1009.5
20260506125512 0 244 1.6 1.6 0.00 0.00 0.00 66 1009.5
20260506125014 0 242 0.0 1.6 0.00 0.00 0.00 66 1009.5
20260506124511 0 269 1.6 1.6 0.00 0.00 0.00 66 1009.5
20260506124014 0 220 0.0 0.0 0.00 0.00 0.00 67 1009.5
20260506123514 0 270 1.6 3.2 0.00 0.00 0.00 67 1009.5
20260506123016 0 239 0.0 0.0 0.00 0.00 0.00 68 1009.8
20260506122516 0 226 0.0 0.0 0.00 0.00 0.00 68 1009.5
20260506122014 0 219 0.0 0.0 0.00 0.00 0.00 69 1009.8
20260506121514 0 235 0.0 0.0 0.00 0.00 0.00 70 1009.5
20260506121011 0 221 0.0 0.0 0.00 0.00 0.00 71 1009.5
20260506120516 0 208 0.0 0.0 0.00 0.00 0.00 71 1009.8
20260506120013 0 208 0.0 0.0 0.00 0.00 0.00 71 1009.8
20260506115514 0 199 0.0 0.0 0.00 0.00 0.00 71 1010.2
20260506115012 0 219 0.0 0.0 0.00 0.00 0.00 70 1010.2
20260506114511 0 216 0.0 0.0 0.00 0.00 0.00 70 1010.2
20260506114012 0 213 0.0 0.0 0.00 0.00 0.00 70 1010.2
20260506113511 0 153 0.0 0.0 0.00 0.00 0.00 70 1010.2
20260506113013 0 222 0.0 0.0 0.00 0.00 0.00 69 1010.2
20260506112513 0 172 0.0 0.0 0.00 0.00 0.00 68 1010.2
20260506112013 0 210 0.0 0.0 0.00 0.00 0.00 68 1010.2
20260506111512 0 212 0.0 0.0 0.00 0.00 0.00 68 1010.2
20260506111015 0 213 0.0 0.0 0.00 0.00 0.00 67 1010.2
20260506110511 0 213 0.0 0.0 0.00 0.00 0.00 67 1010.5
20260506105942 0 185 0.0 0.0 0.00 0.00 0.00 67 1010.5
20260506105439 0 265 0.0 0.0 0.00 0.00 0.00 66 1010.5
20260506104938 0 238 0.0 1.6 0.00 0.00 0.00 66 1010.5
20260506104413 0 217 1.6 1.6 0.00 0.00 0.00 66 1010.5
20260506103913 0 237 0.0 1.6 0.00 0.00 0.00 65 1010.5
20260506103411 0 129 0.0 0.0 0.00 0.00 0.00 65 1010.5
20260506102913 0 151 0.0 1.6 0.00 0.00 0.00 65 1010.5
20260506102412 0 170 0.0 0.0 0.00 0.00 0.00 64 1010.8
20260506101913 0 170 0.0 1.6 0.00 0.00 0.00 64 1010.8
20260506101411 0 130 0.0 0.0 0.00 0.00 0.00 64 1010.8
20260506100909 0 235 0.0 1.6 0.00 0.00 0.00 64 1011.2
20260506100341 0 132 0.0 1.6 0.00 0.00 0.00 64 1010.8
20260506095829 0 188 0.0 0.0 0.00 0.00 0.00 64 1010.8
20260506095330 0 95 1.6 1.6 0.00 0.00 0.00 64 1011.2
20260506094829 0 224 0.0 1.6 0.00 0.00 0.00 64 1011.2
20260506094329 1 231 0.0 0.0 0.00 0.00 0.00 64 1011.2
20260506093829 1 262 0.0 1.6 0.00 0.00 0.00 63 1011.5
20260506093328 1 168 0.0 0.0 0.00 0.00 0.00 63 1011.5
20260506092832 1 212 0.0 1.6 0.00 0.00 0.00 63 1011.5
20260506092330 1 246 0.0 1.6 0.00 0.00 0.00 63 1011.5
20260506091827 1 228 0.0 0.0 0.00 0.00 0.00 63 1011.9
20260506091328 1 141 0.0 0.0 0.00 0.00 0.00 62 1011.9
20260506090827 1 189 1.6 1.6 0.00 0.00 0.00 63 1011.9
20260506090328 1 255 0.0 1.6 0.00 0.00 0.00 62 1011.9
20260506085830 1 169 0.0 0.0 0.00 0.00 0.00 62 1011.9
20260506085328 1 267 1.6 1.6 0.00 0.00 0.00 61 1012.2
20260506084827 1 193 0.0 0.0 0.00 0.00 0.00 61 1012.2
20260506084327 1 340 0.0 1.6 0.00 0.00 0.00 61 1012.2
20260506083825 1 250 1.6 1.6 0.00 0.00 0.00 60 1012.2
20260506083326 1 70 1.6 1.6 0.00 0.00 0.00 60 1012.2
20260506082826 1 131 0.0 1.6 0.00 0.00 0.00 60 1012.2
20260506082328 2 84 0.0 1.6 0.00 0.00 0.00 59 1012.5
20260506081827 2 85 3.2 3.2 0.00 0.00 0.00 59 1012.5
20260506081325 2 110 1.6 3.2 0.00 0.00 0.00 59 1012.5
20260506080826 2 72 0.0 1.6 0.00 0.00 0.00 58 1012.2
20260506080328 2 130 1.6 3.2 0.00 0.00 0.00 58 1012.5
20260506073323 2 124 0.0 0.0 0.00 0.00 0.00 57 1012.9
20260506072822 2 43 0.0 1.6 0.00 0.00 0.00 57 1012.9
20260506072325 2 171 0.0 0.0 0.00 0.00 0.00 57 1012.9
20260506071825 2 78 1.6 3.2 0.00 0.00 0.00 57 1012.9
20260506071323 2 277 0.0 1.6 0.00 0.00 0.00 57 1013.2
20260506070824 2 93 0.0 3.2 0.00 0.00 0.00 57 1012.9
20260506070322 2 181 0.0 0.0 0.00 0.00 0.00 57 1012.9
20260506062322 3 201 0.0 0.0 0.00 0.00 0.00 55 1013.9
20260506061824 3 140 1.6 1.6 0.00 0.00 0.00 54 1013.9
20260506061322 3 221 1.6 1.6 0.00 0.00 0.00 54 1013.5
20260506060820 3 110 1.6 3.2 0.00 0.00 0.00 53 1013.5
20260506060323 3 109 0.0 0.0 0.00 0.00 0.00 53 1013.5
20260506051318 5 160 1.6 1.6 0.00 0.00 0.00 52 1013.9
20260506050818 5 86 3.2 4.8 0.00 0.00 0.00 51 1013.9
20260506050319 5 156 1.6 3.2 0.00 0.00 0.00 51 1014.2
20260506044819 5 108 0.0 0.0 0.00 0.00 0.00 51 1014.2
20260506044318 5 137 1.6 3.2 0.00 0.00 0.00 51 1014.2
20260506043817 5 156 0.0 1.6 0.00 0.00 0.00 50 1014.2
20260506043319 5 140 0.0 0.0 0.00 0.00 0.00 51 1014.2
20260506042818 5 93 1.6 1.6 0.00 0.00 0.00 50 1014.2
20260506042316 5 107 1.6 1.6 0.00 0.00 0.00 50 1014.6
20260506041816 6 138 0.0 0.0 0.00 0.00 0.00 50 1014.6
20260506041317 6 121 0.0 0.0 0.00 0.00 0.00 50 1014.6
20260506040742 6 153 0.0 0.0 0.00 0.00 0.00 50 1014.6
20260506040238 6 151 0.0 0.0 0.00 0.00 0.00 49 1014.6
20260506035743 6 134 1.6 1.6 0.00 0.00 0.00 49 1014.6
20260506035239 6 121 3.2 4.8 0.00 0.00 0.00 48 1014.6
20260506034738 6 106 1.6 3.2 0.00 0.00 0.00 48 1014.9
20260506034239 6 97 3.2 4.8 0.00 0.00 0.00 48 1014.6
20260506033740 6 167 0.0 0.0 0.00 0.00 0.00 47 1014.6
20260506033241 7 156 0.0 1.6 0.00 0.00 0.00 47 1014.6
20260506032742 7 119 3.2 3.2 0.00 0.00 0.00 47 1014.6
20260506032235 7 137 0.0 1.6 0.00 0.00 0.00 47 1014.6
20260506031716 7 105 3.2 3.2 0.00 0.00 0.00 46 1014.2
20260506031214 7 150 1.6 3.2 0.00 0.00 0.00 46 1014.6
20260506030713 7 90 0.0 3.2 0.00 0.00 0.00 45 1014.6
20260506030216 7 117 3.2 3.2 0.00 0.00 0.00 45 1014.6